Hourly Data Report for June 06, 2021

LONDON CS
ONTARIO
Current Station Operator: ECCC - MSC

43°02'00.000" N
81°09'00.000" W
278.00 m
6144478
71622
WSN

Download Data

Hourly Data (June 2021)
Hourly Data Report for June 6, 2021
TIME
LST
Temp Definition
°C
Dew Point Definition
°C
Rel Hum Definition
%
Precip. Amount Definition
mm

Wind Dir Definition
10's deg

Wind Spd Definition
km/h
Visibility Definition
km
Stn Press Definition
kPa
Hmdx Definition


Wind Chill Definition


Weather Definition


00:00 22.5 14.0 59 0.0       98.19 26   LegendNANA
01:00 21.3 14.1 63 0.0       98.20 25   LegendNANA
02:00 21.3 14.2 64 0.0       98.19 25   LegendNANA
03:00 20.9 14.3 66 0.0       98.19     LegendNANA
04:00 21.0 14.5 66 0.0       98.19 25   LegendNANA
05:00 20.8 14.5 67 0.0       98.25     LegendNANA
06:00 20.8 15.1 70 0.0       98.29 25   LegendNANA
07:00 22.9 15.4 63 0.0       98.34 27   LegendNANA
08:00 24.7 16.3 60 0.0       98.40 30   LegendNANA
09:00 26.5 16.5 54 0.0       98.40 31   LegendNANA
10:00 27.8 17.3 53 0.0       98.37 33   LegendNANA
11:00 29.1 18.4 52 0.0       98.36 35   LegendNANA
12:00 30.3 19.0 51 0.0       98.32 37   LegendNANA
13:00 29.1 17.1 48 0.0       98.30 34   LegendNANA
14:00 29.4 18.7 53 0.0       98.28 36   LegendNANA
15:00 29.0 15.3 43 0.0       98.29 33   LegendNANA
16:00 28.9 15.0 43 0.0       98.28 33   LegendNANA
17:00 28.3 13.9 41 0.0       98.26 32   LegendNANA
18:00 27.6 13.0 40 0.0       98.25 30   LegendNANA
19:00 27.0 14.2 45 0.0       98.25 30   LegendNANA
20:00 24.9 14.4 52 0.0       98.27 29   LegendNANA
21:00 22.5 14.3 60 0.0       98.33 26   LegendNANA
22:00 21.1 14.2 65 0.0       98.38 25   LegendNANA
23:00 19.9 13.9 68 0.0       98.38     LegendNANA

Notes on Data Quality.

Legend

  • E = Estimated
  • M = Missing
  • NA = Not Available*
  • [empty] = Indicates an unobserved value
Date modified: